Regional Weather Roundup
Issued by NWS Cleveland, OH

Home | Current Version | Previous Version | Text Only | Print | Product List | Glossary Off
Versions: 1 2 3 4 5 6 7 8 9 10 11 12 13 14 15 16 17 18 19 20 21 22 23 24 25 26 27 28 29 30 31 32 33 34 35 36 37 38 39 40 41 42 43 44 45 46 47 48 49 50

000
ASUS41 KCLE 310602
RWRCLE
OHIO REGIONAL WEATHER ROUNDUP
NATIONAL WEATHER SERVICE CLEVELAND, OH
200 AM EDT MON AUG 31 2015

NOTE: "FAIR" INDICATES FEW OR NO CLOUDS BELOW 12,000 FEET WITH NO
SIGNIFICANT WEATHER AND/OR OBSTRUCTIONS TO VISIBILITY.

OHZ001>008-015>018-024>027-034-035-043-044-310700-
   NORTHWEST OHIO

CITY           SKY/WX    TMP DP  RH WIND       PRES   REMARKS
DEFIANCE       FAIR      68  66  93 CALM      30.05F FOG
FINDLAY        FAIR      68  65  90 SW5       30.05S
TOLEDO EXPRESS FAIR      66  66 100 CALM      30.04F FOG
TOLEDO EXEC    FAIR      69  65  86 S3        30.05F
LIMA           FAIR      69  65  86 SW5       30.07F
$$

OHZ009>014-019>023-028>033-038-089-310700-
   NORTHEAST OHIO

CITY           SKY/WX    TMP DP  RH WIND       PRES   REMARKS
CLE-HOPKINS    MOCLDY    70  64  81 S6        30.07F
CLE-LAKEFRONT  FAIR      75  64  68 S10       30.04S
CUY CO. ARPT   NOT AVBL
LORAIN-ELYRIA  FAIR      67  64  90 CALM      30.06F
ASHTABULA      FAIR      68  67  96 S3        30.07S
AKRON-CANTON   CLOUDY    69  64  84 SW6       30.09S
WOOSTER        FAIR      68  65  90 SW5       30.09S
MANSFIELD      FAIR      68  66  93 S6        30.08F
YOUNGSTOWN     CLOUDY    69  65  86 SW3       30.08F
$$

OHZ042-051>053-060>062-070>072-077>081-310700-
  SOUTHWEST OHIO

CITY           SKY/WX    TMP DP  RH WIND       PRES   REMARKS
CINC-COVINGTON FAIR      70  66  87 SW3       30.09S
CINC-LUNKEN    FAIR      67  67 100 CALM      30.09S FOG
HAMILTON       FAIR      66  65  96 CALM      30.09F FOG
DAYTON         FAIR      69  66  90 S6        30.09F
WRIGHT-PAT AFB FAIR      68  65  90 CALM      30.08F
DAYTON GENERAL FAIR      68  65  90 CALM      30.09S
WILMINGTON     FAIR      68  64  87 CALM      30.10S
$$

OHZ036-037-039>041-045>050-054>059-063>069-073>076-082>088-310700-
  CENTRAL AND SOUTHEAST OHIO

CITY           SKY/WX    TMP DP  RH WIND       PRES   REMARKS
COLUMBUS       FAIR      70  66  87 CALM      30.08F
OSU AIRPORT    FAIR      69  64  84 S6        30.08F
BOLTON FIELD   NOT AVBL
RICKENBACK AFB NOT AVBL
NEWARK         FAIR      66  65  96 CALM      30.09F FOG
MARION         FAIR      67  65  93 S3        30.08F FOG
LANCASTER      FAIR      64  62  93 CALM      30.10S
ZANESVILLE     FAIR      66  63  90 S5        30.09F
NEW PHILLY     FAIR      66  65  96 CALM      30.10S
$$



USA.gov is the U.S. government's official web portal to all federal, state and local government web resources and services.